FENGYUN 1C DEB, 38817

Orbit data source: Space-Track

FENGYUN 1C DEB, 38817 is space debris in SSO originally from a launch on Mon, 10 May 1999 UTC launched from the Taiyaun Space Center, China (TSC). Fengyun 1C debris stems from the Chinese weather satellite Fengyun-1C, which was intentionally destroyed by a Chinese anti-satellite missile in 2007. This event dramatically increased the amount of space debris, with thousands of trackable fragments posing hazards to satellites and human spaceflight. The Fengyun 1C debris cloud has become a focal point in discussions about space sustainability and the need for international regulations to prevent the creation of new debris.

Loading next visibility...
Identifier
38817, 1999-025EVH
Orbit
SSO
Country
Flag of CNCN / PRC
Related business
Manufacturer
Unknown
Mission
Spacecraft
Bus & Motor
Unknown
Mass
Unknown
Launch date (UTC)
Icon of a cake. It is the launch day of the satellite!1999-05-10 (27 years ago)
Launch vehicle
Unknown
Launch site
Taiyaun Space Center, China (TSC)
Object type
Payload
Rocket body
Debris
Shape & HBR
Unknown shape, 0.1 m
Radar Cross Section
Small (<0.1 m²)

Expand to show TLE details & history
Last TLE update: 2 months ago

TLE from 2 months ago
0 FENGYUN 1C DEB
1 38817U 99025EVH 26079.87641572  .00001392  00000-0  15022-2 0  9993
2 38817  98.5943 303.1735 0289265 148.4539 213.4312 13.58049707671661
Epoch: 2026-03-20T21:02Z
TLE epoch observation values (Epoch: 2026-03-20T21:02:02.318Z)
Latitude
0.00001°
Longitude
169.25865°
Altitude
1,226.624 km
Speed
7.152 km/s
True Right ascension
20h 12m 41s
True Declination
0° 00' 00"
Sunlit
Object was in daylight at epoch
Visualization orbit readout
Latitude
Unknown
Longitude
Unknown
Altitude
Unknown
Speed
Unknown
Apparent Right ascension
Unknown
Apparent Declination
Unknown
Sunlit
N/A
Visualization observer readout
Local Sidereal Time
21:27:20
Azimuth
Unknown
Elevation
Unknown
Doppler factor
Unknown
Orbital elements
Apogee altitude
1,254.603 km
Perigee altitude
825.44 km
Semi-major axis
7,418.159 km
Eccentricity
0.02893
Inclination
98.5943°
RAAN
303.1735°
Arg. of periapsis
148.4539°
True anomaly
211.65883°
Mean anomaly
213.4312°
Eccentric anomaly
212.53973°
Mean motion
3.39703 °/min
Orbital period
105.98 mins
BSTAR
0.0015022
Loading maneuver chart data...
Computing Atmospheric mass density...

Documentation

Showing up to 5 results
|